Time,TemperatureF,DewpointF,PressureIn,WindDirection,WindDirectionDegrees,WindSpeedMPH,WindSpeedGustMPH,Humidity,HourlyPrecipIn,Conditions,Clouds,dailyrainin,SoftwareType,DateUTC
2013-08-31 00:00:00,72.8,71.6,29.83,SSE,161,0.0,0.0,96,0.00,,,0.01,VWS V14.01,2013-08-31 04:00:00,
2013-08-31 00:01:00,72.8,71.6,29.83,SSE,161,0.0,0.0,96,0.00,,,0.01,VWS V14.01,2013-08-31 04:01:00,
2013-08-31 00:06:00,72.7,71.5,29.83,SSE,163,0.0,0.0,96,0.00,,,0.00,VWS V14.01,2013-08-31 04:06:00,
2013-08-31 00:11:00,72.8,71.6,29.83,SSE,161,0.0,0.0,96,0.00,,,0.00,VWS V14.01,2013-08-31 04:11:00,
2013-08-31 00:16:00,73.0,72.1,29.84,SSE,163,0.0,1.0,97,0.00,,,0.00,VWS V14.01,2013-08-31 04:16:00,
2013-08-31 00:21:00,73.2,72.3,29.84,SSE,163,0.0,1.0,97,0.00,,,0.00,VWS V14.01,2013-08-31 04:21:00,
2013-08-31 00:26:00,73.2,72.3,29.84,SSW,197,0.0,4.0,97,0.00,,,0.00,VWS V14.01,2013-08-31 04:26:00,
2013-08-31 00:30:00,73.0,71.8,29.84,SSW,195,0.0,4.0,96,0.00,,,0.00,VWS V14.01,2013-08-31 04:30:00,
2013-08-31 00:31:00,73.0,72.1,29.84,SSW,198,0.0,0.0,97,0.00,,,0.00,VWS V14.01,2013-08-31 04:31:00,
2013-08-31 00:36:00,73.0,71.8,29.84,SSW,197,0.0,0.0,96,0.00,,,0.00,VWS V14.01,2013-08-31 04:36:00,
2013-08-31 00:41:00,73.0,71.8,29.84,SSW,197,0.0,1.0,96,0.00,,,0.00,VWS V14.01,2013-08-31 04:41:00,
2013-08-31 00:46:00,72.8,71.6,29.84,SSW,196,0.0,1.0,96,0.00,,,0.00,VWS V14.01,2013-08-31 04:46:00,
2013-08-31 00:51:00,72.8,71.6,29.84,SSW,197,0.0,1.0,96,0.00,,,0.00,VWS V14.01,2013-08-31 04:51:00,
2013-08-31 00:56:00,72.8,71.6,29.84,SSW,197,0.0,1.0,96,0.00,,,0.00,VWS V14.01,2013-08-31 04:56:00,
2013-08-31 01:00:00,72.7,71.5,29.84,SSW,196,0.0,1.0,96,0.00,,,0.00,VWS V14.01,2013-08-31 05:00:00,
2013-08-31 01:01:00,72.7,71.5,29.84,SSW,195,0.0,0.0,96,0.00,,,0.00,VWS V14.01,2013-08-31 05:01:00,
2013-08-31 01:06:00,72.7,71.5,29.84,SSW,195,0.0,0.0,96,0.00,,,0.00,VWS V14.01,2013-08-31 05:06:00,
2013-08-31 01:11:00,72.5,71.3,29.84,SSW,196,0.0,0.0,96,0.00,,,0.00,VWS V14.01,2013-08-31 05:11:00,
2013-08-31 01:16:00,72.5,71.3,29.83,SSW,195,0.0,0.0,96,0.00,,,0.00,VWS V14.01,2013-08-31 05:16:00,
2013-08-31 01:21:00,72.3,71.1,29.83,SSW,194,0.0,1.0,96,0.00,,,0.00,VWS V14.01,2013-08-31 05:21:00,
2013-08-31 01:26:00,72.3,71.1,29.83,SSW,197,0.0,1.0,96,0.00,,,0.00,VWS V14.01,2013-08-31 05:26:00,
2013-08-31 01:30:00,72.1,71.2,29.83,SSW,198,0.0,1.0,97,0.00,,,0.00,VWS V14.01,2013-08-31 05:30:00,
2013-08-31 01:31:00,72.1,71.2,29.83,SSW,197,0.0,0.0,97,0.00,,,0.00,VWS V14.01,2013-08-31 05:31:00,
2013-08-31 01:36:00,72.1,71.2,29.83,SSW,197,0.0,0.0,97,0.00,,,0.00,VWS V14.01,2013-08-31 05:36:00,
2013-08-31 01:41:00,72.1,71.2,29.83,SSW,196,0.0,0.0,97,0.00,,,0.00,VWS V14.01,2013-08-31 05:41:00,
2013-08-31 01:46:00,72.1,71.2,29.82,SSW,195,0.0,0.0,97,0.00,,,0.00,VWS V14.01,2013-08-31 05:46:00,
2013-08-31 01:51:00,72.1,71.2,29.82,SSW,196,0.0,0.0,97,0.00,,,0.00,VWS V14.01,2013-08-31 05:51:00,
2013-08-31 01:56:00,72.0,71.1,29.82,SSW,195,0.0,0.0,97,0.00,,,0.00,VWS V14.01,2013-08-31 05:56:00,
2013-08-31 02:00:00,72.0,71.1,29.82,SSW,195,0.0,0.0,97,0.00,,,0.00,VWS V14.01,2013-08-31 06:00:00,
2013-08-31 02:01:00,72.0,71.1,29.82,SSW,198,0.0,0.0,97,0.00,,,0.00,VWS V14.01,2013-08-31 06:01:00,
2013-08-31 02:06:00,71.8,70.9,29.82,SSW,198,0.0,0.0,97,0.00,,,0.00,VWS V14.01,2013-08-31 06:06:00,
2013-08-31 02:11:00,71.8,70.9,29.82,SSW,197,0.0,1.0,97,0.00,,,0.00,VWS V14.01,2013-08-31 06:11:00,
2013-08-31 02:16:00,72.0,71.1,29.81,SSW,198,0.0,3.0,97,0.00,,,0.00,VWS V14.01,2013-08-31 06:16:00,
2013-08-31 02:21:00,72.1,71.2,29.81,SSW,197,0.0,3.0,97,0.00,,,0.00,VWS V14.01,2013-08-31 06:21:00,
2013-08-31 02:26:00,72.1,71.2,29.81,SSW,196,0.0,3.0,97,0.00,,,0.00,VWS V14.01,2013-08-31 06:26:00,
2013-08-31 02:30:00,72.1,71.2,29.81,SSW,196,0.0,3.0,97,0.00,,,0.00,VWS V14.01,2013-08-31 06:30:00,
2013-08-31 02:31:00,72.1,71.2,29.81,SSW,198,0.0,0.0,97,0.00,,,0.00,VWS V14.01,2013-08-31 06:31:00,
2013-08-31 02:36:00,72.1,70.9,29.81,SSW,197,0.0,3.0,96,0.00,,,0.00,VWS V14.01,2013-08-31 06:36:00,
2013-08-31 02:41:00,72.1,70.9,29.81,SSW,196,0.0,3.0,96,0.00,,,0.00,VWS V14.01,2013-08-31 06:41:00,
2013-08-31 02:46:00,72.1,70.9,29.81,SSW,196,0.0,3.0,96,0.00,,,0.00,VWS V14.01,2013-08-31 06:46:00,
2013-08-31 02:51:00,72.0,70.8,29.81,SSW,196,0.0,3.0,96,0.00,,,0.00,VWS V14.01,2013-08-31 06:51:00,
2013-08-31 02:56:00,72.0,70.8,29.81,SSW,197,0.0,3.0,96,0.00,,,0.00,VWS V14.01,2013-08-31 06:56:00,
2013-08-31 03:00:00,72.0,70.8,29.81,SSW,197,0.0,3.0,96,0.00,,,0.00,VWS V14.01,2013-08-31 07:00:00,
2013-08-31 03:01:00,72.0,70.8,29.81,SSW,198,0.0,0.0,96,0.00,,,0.00,VWS V14.01,2013-08-31 07:01:00,
2013-08-31 03:06:00,72.0,70.8,29.81,SSW,197,0.0,1.0,96,0.00,,,0.00,VWS V14.01,2013-08-31 07:06:00,
2013-08-31 03:11:00,71.8,70.6,29.81,SSW,196,0.0,2.0,96,0.00,,,0.00,VWS V14.01,2013-08-31 07:11:00,
2013-08-31 03:16:00,71.8,70.6,29.81,SSW,196,0.0,2.0,96,0.00,,,0.00,VWS V14.01,2013-08-31 07:16:00,
2013-08-31 03:21:00,71.8,70.6,29.81,SSW,198,0.0,2.0,96,0.00,,,0.00,VWS V14.01,2013-08-31 07:21:00,
2013-08-31 03:26:00,71.6,70.4,29.81,SSW,198,0.0,2.0,96,0.00,,,0.00,VWS V14.01,2013-08-31 07:26:00,
2013-08-31 03:30:00,71.6,70.4,29.80,SSW,198,0.0,2.0,96,0.00,,,0.00,VWS V14.01,2013-08-31 07:30:00,
2013-08-31 03:31:00,71.6,70.4,29.80,SSW,198,0.0,1.0,96,0.00,,,0.00,VWS V14.01,2013-08-31 07:31:00,
2013-08-31 03:36:00,71.8,70.6,29.80,SSW,197,0.0,2.0,96,0.00,,,0.00,VWS V14.01,2013-08-31 07:36:00,
2013-08-31 03:41:00,71.8,70.3,29.80,SSW,198,0.0,3.0,95,0.00,,,0.00,VWS V14.01,2013-08-31 07:41:00,
2013-08-31 03:46:00,72.0,70.5,29.80,SSW,197,0.0,3.0,95,0.00,,,0.00,VWS V14.01,2013-08-31 07:46:00,
2013-08-31 03:51:00,72.1,70.3,29.80,SSW,197,0.0,3.0,94,0.00,,,0.00,VWS V14.01,2013-08-31 07:51:00,
2013-08-31 03:56:00,72.1,70.3,29.80,SSW,196,0.0,3.0,94,0.00,,,0.00,VWS V14.01,2013-08-31 07:56:00,
2013-08-31 04:00:00,72.1,70.3,29.80,SSW,196,0.0,3.0,94,0.00,,,0.00,VWS V14.01,2013-08-31 08:00:00,
2013-08-31 04:01:00,72.0,70.2,29.80,SSW,198,0.0,0.0,94,0.00,,,0.00,VWS V14.01,2013-08-31 08:01:00,
2013-08-31 04:06:00,72.0,70.2,29.80,SSW,196,0.0,1.0,94,0.00,,,0.00,VWS V14.01,2013-08-31 08:06:00,
2013-08-31 04:11:00,72.0,69.9,29.80,SSW,198,0.0,1.0,93,0.00,,,0.00,VWS V14.01,2013-08-31 08:11:00,
2013-08-31 04:16:00,71.8,69.7,29.80,SSW,196,0.0,1.0,93,0.00,,,0.00,VWS V14.01,2013-08-31 08:16:00,
2013-08-31 04:21:00,71.8,69.7,29.80,SSW,197,0.0,1.0,93,0.00,,,0.00,VWS V14.01,2013-08-31 08:21:00,
2013-08-31 04:26:00,72.0,69.9,29.80,SSW,196,0.0,1.0,93,0.00,,,0.00,VWS V14.01,2013-08-31 08:26:00,
2013-08-31 04:30:00,72.0,69.9,29.80,SSW,196,0.0,2.0,93,0.00,,,0.00,VWS V14.01,2013-08-31 08:30:00,
2013-08-31 04:31:00,72.0,69.9,29.80,SSW,196,0.0,0.0,93,0.00,,,0.00,VWS V14.01,2013-08-31 08:31:00,
2013-08-31 04:36:00,72.0,69.6,29.80,SSW,196,0.0,0.0,92,0.00,,,0.00,VWS V14.01,2013-08-31 08:36:00,
2013-08-31 04:41:00,72.0,69.6,29.80,SSW,197,0.0,1.0,92,0.00,,,0.00,VWS V14.01,2013-08-31 08:41:00,
2013-08-31 04:46:00,72.0,69.9,29.80,SSW,197,0.0,1.0,93,0.00,,,0.00,VWS V14.01,2013-08-31 08:46:00,
2013-08-31 04:51:00,72.0,69.9,29.80,SSW,197,0.0,1.0,93,0.00,,,0.00,VWS V14.01,2013-08-31 08:51:00,
2013-08-31 04:56:00,71.8,69.3,29.80,SSW,198,0.0,1.0,92,0.00,,,0.00,VWS V14.01,2013-08-31 08:56:00,
2013-08-31 05:00:00,71.8,69.4,29.80,SSW,198,0.0,1.0,92,0.00,,,0.00,VWS V14.01,2013-08-31 09:00:00,
2013-08-31 05:01:00,71.8,69.3,29.80,SSW,196,0.0,0.0,92,0.00,,,0.00,VWS V14.01,2013-08-31 09:01:00,
2013-08-31 05:06:00,71.8,69.7,29.80,SSW,196,0.0,0.0,93,0.00,,,0.00,VWS V14.01,2013-08-31 09:06:00,
2013-08-31 05:11:00,71.8,69.7,29.80,SSW,196,0.0,0.0,93,0.00,,,0.00,VWS V14.01,2013-08-31 09:11:00,
2013-08-31 05:16:00,71.6,69.5,29.80,SSW,198,0.0,0.0,93,0.00,,,0.00,VWS V14.01,2013-08-31 09:16:00,
2013-08-31 05:21:00,71.5,69.4,29.80,SSW,198,0.0,0.0,93,0.00,,,0.00,VWS V14.01,2013-08-31 09:21:00,
2013-08-31 05:26:00,71.3,69.5,29.80,SSW,196,0.0,0.0,94,0.00,,,0.00,VWS V14.01,2013-08-31 09:26:00,
2013-08-31 05:30:00,71.1,69.3,29.80,SSW,196,0.0,1.0,94,0.00,,,0.00,VWS V14.01,2013-08-31 09:30:00,
2013-08-31 05:31:00,71.1,69.3,29.80,SSW,195,0.0,0.0,94,0.00,,,0.00,VWS V14.01,2013-08-31 09:31:00,
2013-08-31 05:36:00,71.1,69.6,29.80,SSW,198,0.0,1.0,95,0.00,,,0.00,VWS V14.01,2013-08-31 09:36:00,
2013-08-31 05:41:00,71.1,69.6,29.80,SSW,196,0.0,1.0,95,0.00,,,0.00,VWS V14.01,2013-08-31 09:41:00,
2013-08-31 05:46:00,71.1,69.6,29.80,SSW,196,0.0,1.0,95,0.00,,,0.00,VWS V14.01,2013-08-31 09:46:00,
2013-08-31 05:51:00,70.9,69.4,29.80,SSW,198,0.0,1.0,95,0.00,,,0.00,VWS V14.01,2013-08-31 09:51:00,
2013-08-31 05:56:00,70.9,69.4,29.80,SSW,196,0.0,1.0,95,0.00,,,0.00,VWS V14.01,2013-08-31 09:56:00,
2013-08-31 06:00:00,70.8,69.3,29.80,SSW,197,0.0,1.0,95,0.00,,,0.00,VWS V14.01,2013-08-31 10:00:00,
2013-08-31 06:01:00,70.8,69.3,29.80,SSW,198,0.0,0.0,95,0.00,,,0.00,VWS V14.01,2013-08-31 10:01:00,
2013-08-31 06:06:00,70.8,69.3,29.80,SSW,197,0.0,0.0,95,0.00,,,0.00,VWS V14.01,2013-08-31 10:06:00,
2013-08-31 06:11:00,70.8,69.3,29.80,SSW,196,0.0,0.0,95,0.00,,,0.00,VWS V14.01,2013-08-31 10:11:00,
2013-08-31 06:16:00,70.8,69.3,29.81,SSW,196,0.0,1.0,95,0.00,,,0.00,VWS V14.01,2013-08-31 10:16:00,
2013-08-31 06:21:00,70.8,69.6,29.81,SSW,196,0.0,1.0,96,0.00,,,0.00,VWS V14.01,2013-08-31 10:21:00,
2013-08-31 06:26:00,70.8,69.6,29.81,SSW,196,0.0,1.0,96,0.00,,,0.00,VWS V14.01,2013-08-31 10:26:00,
2013-08-31 06:30:00,70.8,69.6,29.82,SSW,196,0.0,1.0,96,0.00,,,0.00,VWS V14.01,2013-08-31 10:30:00,
2013-08-31 06:31:00,70.8,69.6,29.82,SSW,198,0.0,0.0,96,0.00,,,0.00,VWS V14.01,2013-08-31 10:31:00,
2013-08-31 06:36:00,70.8,69.6,29.82,SSW,198,0.0,0.0,96,0.00,,,0.00,VWS V14.01,2013-08-31 10:36:00,
2013-08-31 06:41:00,70.9,69.7,29.82,SSW,196,0.0,0.0,96,0.00,,,0.00,VWS V14.01,2013-08-31 10:41:00,
2013-08-31 06:46:00,70.9,69.7,29.82,SSW,196,0.0,1.0,96,0.00,,,0.00,VWS V14.01,2013-08-31 10:46:00,
2013-08-31 06:51:00,70.9,69.7,29.82,SSW,196,0.0,1.0,96,0.00,,,0.00,VWS V14.01,2013-08-31 10:51:00,
2013-08-31 06:56:00,70.9,69.7,29.82,SSW,198,0.0,1.0,96,0.00,,,0.00,VWS V14.01,2013-08-31 10:56:00,
2013-08-31 07:00:00,71.1,69.9,29.82,SSW,198,0.0,1.0,96,0.00,,,0.00,VWS V14.01,2013-08-31 11:00:00,
2013-08-31 07:01:00,71.1,69.9,29.82,SSW,198,0.0,0.0,96,0.00,,,0.00,VWS V14.01,2013-08-31 11:01:00,
2013-08-31 07:06:00,71.1,69.9,29.82,SSW,196,0.0,1.0,96,0.00,,,0.00,VWS V14.01,2013-08-31 11:06:00,
2013-08-31 07:11:00,71.3,69.8,29.82,SSW,198,0.0,1.0,95,0.00,,,0.00,VWS V14.01,2013-08-31 11:11:00,
2013-08-31 07:16:00,71.3,69.8,29.83,SSW,196,0.0,1.0,95,0.00,,,0.00,VWS V14.01,2013-08-31 11:16:00,
2013-08-31 07:21:00,71.3,69.8,29.83,SSW,197,0.0,1.0,95,0.00,,,0.00,VWS V14.01,2013-08-31 11:21:00,
2013-08-31 07:26:00,71.3,69.8,29.83,SSW,196,0.0,1.0,95,0.00,,,0.00,VWS V14.01,2013-08-31 11:26:00,
2013-08-31 07:30:00,71.3,70.1,29.83,SSW,196,0.0,1.0,96,0.00,,,0.00,VWS V14.01,2013-08-31 11:30:00,
2013-08-31 07:31:00,71.3,70.1,29.83,SSW,196,0.0,0.0,96,0.00,,,0.00,VWS V14.01,2013-08-31 11:31:00,
2013-08-31 07:36:00,71.3,70.1,29.83,SSW,196,0.0,0.0,96,0.00,,,0.00,VWS V14.01,2013-08-31 11:36:00,
2013-08-31 07:41:00,71.5,70.3,29.83,SSW,197,0.0,0.0,96,0.00,,,0.00,VWS V14.01,2013-08-31 11:41:00,
2013-08-31 07:46:00,71.6,70.4,29.83,SSW,196,0.0,0.0,96,0.00,,,0.00,VWS V14.01,2013-08-31 11:46:00,
2013-08-31 07:51:00,72.0,70.8,29.83,SSW,196,0.0,0.0,96,0.00,,,0.00,VWS V14.01,2013-08-31 11:51:00,
2013-08-31 07:56:00,72.7,71.2,29.83,SSW,196,0.0,0.0,95,0.00,,,0.00,VWS V14.01,2013-08-31 11:56:00,
2013-08-31 08:00:00,73.2,71.4,29.84,SSW,196,0.0,0.0,94,0.00,,,0.00,VWS V14.01,2013-08-31 12:00:00,
2013-08-31 08:01:00,73.2,71.4,29.84,SSW,197,0.0,0.0,94,0.00,,,0.00,VWS V14.01,2013-08-31 12:01:00,
2013-08-31 08:06:00,73.9,71.4,29.84,SSW,196,0.0,0.0,92,0.00,,,0.00,VWS V14.01,2013-08-31 12:06:00,
2013-08-31 08:11:00,74.7,72.2,29.84,SSW,196,0.0,0.0,92,0.00,,,0.00,VWS V14.01,2013-08-31 12:11:00,
2013-08-31 08:16:00,75.3,71.8,29.85,SSW,196,0.0,0.0,89,0.00,,,0.00,VWS V14.01,2013-08-31 12:16:00,
2013-08-31 08:21:00,76.0,71.5,29.85,SSW,196,0.0,1.0,86,0.00,,,0.00,VWS V14.01,2013-08-31 12:21:00,
2013-08-31 08:26:00,76.8,71.9,29.85,SSW,196,0.0,1.0,85,0.00,,,0.00,VWS V14.01,2013-08-31 12:26:00,
2013-08-31 08:30:00,77.2,72.0,29.85,SSW,198,0.0,1.0,84,0.00,,,0.00,VWS V14.01,2013-08-31 12:30:00,
2013-08-31 08:31:00,77.2,72.0,29.85,SSW,197,0.0,0.0,84,0.00,,,0.00,VWS V14.01,2013-08-31 12:31:00,
2013-08-31 08:36:00,77.9,72.3,29.85,SSW,197,0.0,1.0,83,0.00,,,0.00,VWS V14.01,2013-08-31 12:36:00,
2013-08-31 08:41:00,78.3,72.4,29.85,SSW,196,0.0,1.0,82,0.01,,,0.01,VWS V14.01,2013-08-31 12:41:00,
2013-08-31 08:46:00,78.6,72.7,29.85,SSW,196,0.0,1.0,82,0.01,,,0.01,VWS V14.01,2013-08-31 12:46:00,
2013-08-31 08:51:00,79.2,72.9,29.85,SSW,211,0.0,4.0,81,0.01,,,0.01,VWS V14.01,2013-08-31 12:51:00,
2013-08-31 08:56:00,79.6,73.3,29.85,SSW,211,0.0,4.0,81,0.01,,,0.01,VWS V14.01,2013-08-31 12:56:00,
2013-08-31 09:00:00,79.8,72.7,29.86,SSW,211,1.0,4.0,79,0.01,,,0.01,VWS V14.01,2013-08-31 13:00:00,
2013-08-31 09:01:00,79.8,72.7,29.86,SSW,211,1.0,4.0,79,0.01,,,0.01,VWS V14.01,2013-08-31 13:01:00,
2013-08-31 09:06:00,79.8,72.3,29.86,SW,223,0.0,4.0,78,0.01,,,0.01,VWS V14.01,2013-08-31 13:06:00,
2013-08-31 09:11:00,80.5,73.0,29.86,SW,227,0.0,4.0,78,0.01,,,0.01,VWS V14.01,2013-08-31 13:11:00,
2013-08-31 09:16:00,80.7,72.4,29.86,SW,227,1.0,4.0,76,0.01,,,0.01,VWS V14.01,2013-08-31 13:16:00,
2013-08-31 09:21:00,80.9,72.6,29.86,North,5,0.0,5.0,76,0.01,,,0.01,VWS V14.01,2013-08-31 13:21:00,
2013-08-31 09:26:00,81.1,72.0,29.86,WNW,282,0.0,5.0,74,0.01,,,0.01,VWS V14.01,2013-08-31 13:26:00,
2013-08-31 09:30:00,81.6,71.7,29.86,SW,214,4.0,5.0,72,0.01,,,0.01,VWS V14.01,2013-08-31 13:30:00,
2013-08-31 09:31:00,81.6,71.7,29.86,SW,214,4.0,5.0,72,0.01,,,0.01,VWS V14.01,2013-08-31 13:31:00,
2013-08-31 09:36:00,81.8,71.9,29.86,SSW,211,0.0,4.0,72,0.01,,,0.01,VWS V14.01,2013-08-31 13:36:00,
2013-08-31 09:41:00,82.2,71.9,29.86,West,259,1.0,5.0,71,0.01,,,0.01,VWS V14.01,2013-08-31 13:41:00,
2013-08-31 09:46:00,82.2,72.7,29.86,WSW,242,0.0,5.0,73,0.01,,,0.01,VWS V14.01,2013-08-31 13:46:00,
2013-08-31 09:51:00,82.4,72.5,29.86,SW,234,4.0,5.0,72,0.01,,,0.01,VWS V14.01,2013-08-31 13:51:00,
2013-08-31 09:56:00,82.4,72.1,29.86,SW,236,0.0,5.0,71,0.01,,,0.01,VWS V14.01,2013-08-31 13:56:00,
2013-08-31 10:00:00,82.8,73.3,29.86,SW,220,1.0,5.0,73,0.01,,,0.01,VWS V14.01,2013-08-31 14:00:00,
2013-08-31 10:01:00,82.8,73.3,29.86,SW,221,4.0,5.0,73,0.01,,,0.01,VWS V14.01,2013-08-31 14:01:00,
2013-08-31 10:06:00,83.4,72.2,29.86,SSW,198,1.0,4.0,69,0.00,,,0.01,VWS V14.01,2013-08-31 14:06:00,
2013-08-31 10:11:00,83.6,73.6,29.86,SSW,194,0.0,5.0,72,0.00,,,0.01,VWS V14.01,2013-08-31 14:11:00,
2013-08-31 10:16:00,83.8,73.0,29.87,SW,230,1.0,5.0,70,0.00,,,0.01,VWS V14.01,2013-08-31 14:16:00,
2013-08-31 10:21:00,83.8,73.8,29.87,SW,229,0.0,5.0,72,0.00,,,0.01,VWS V14.01,2013-08-31 14:21:00,
2013-08-31 10:26:00,83.8,73.8,29.87,WSW,246,0.0,5.0,72,0.00,,,0.01,VWS V14.01,2013-08-31 14:26:00,
2013-08-31 10:30:00,83.8,74.2,29.87,West,279,0.0,5.0,73,0.00,,,0.01,VWS V14.01,2013-08-31 14:30:00,
2013-08-31 10:31:00,83.8,74.2,29.87,West,281,0.0,5.0,73,0.00,,,0.01,VWS V14.01,2013-08-31 14:31:00,
2013-08-31 10:36:00,84.1,74.5,29.87,WSW,238,0.0,5.0,73,0.00,,,0.01,VWS V14.01,2013-08-31 14:36:00,
2013-08-31 10:41:00,84.3,74.3,29.87,WSW,242,4.0,5.0,72,0.00,,,0.01,VWS V14.01,2013-08-31 14:41:00,
2013-08-31 10:46:00,84.5,74.1,29.87,SW,226,1.0,7.0,71,0.00,,,0.01,VWS V14.01,2013-08-31 14:46:00,
2013-08-31 10:51:00,84.7,74.3,29.87,SW,235,0.0,7.0,71,0.00,,,0.01,VWS V14.01,2013-08-31 14:51:00,
2013-08-31 10:56:00,85.1,73.8,29.87,SW,232,4.0,7.0,69,0.00,,,0.01,VWS V14.01,2013-08-31 14:56:00,
2013-08-31 11:00:00,85.5,73.7,29.87,WSW,255,3.0,7.0,68,0.00,,,0.01,VWS V14.01,2013-08-31 15:00:00,
2013-08-31 11:01:00,85.5,73.7,29.87,WSW,251,1.0,7.0,68,0.00,,,0.01,VWS V14.01,2013-08-31 15:01:00,
2013-08-31 11:06:00,85.3,73.6,29.87,SW,220,2.0,9.0,68,0.00,,,0.01,VWS V14.01,2013-08-31 15:06:00,
2013-08-31 11:11:00,84.9,74.0,29.87,WSW,250,0.0,9.0,70,0.00,,,0.01,VWS V14.01,2013-08-31 15:11:00,
2013-08-31 11:16:00,84.9,73.6,29.87,SSW,209,0.0,9.0,69,0.00,,,0.01,VWS V14.01,2013-08-31 15:16:00,
2013-08-31 11:21:00,85.5,73.7,29.87,SSW,202,2.0,9.0,68,0.00,,,0.01,VWS V14.01,2013-08-31 15:21:00,
2013-08-31 11:26:00,85.7,73.9,29.87,WSW,250,0.0,9.0,68,0.00,,,0.01,VWS V14.01,2013-08-31 15:26:00,
2013-08-31 11:30:00,86.1,73.9,29.87,SW,229,1.0,9.0,67,0.00,,,0.01,VWS V14.01,2013-08-31 15:30:00,
2013-08-31 11:31:00,86.1,73.9,29.87,SW,229,1.0,9.0,67,0.00,,,0.01,VWS V14.01,2013-08-31 15:31:00,
2013-08-31 11:36:00,86.5,73.8,29.87,SW,219,3.0,6.0,66,0.00,,,0.01,VWS V14.01,2013-08-31 15:36:00,
2013-08-31 11:41:00,86.7,74.4,29.87,South,171,0.0,9.0,67,0.00,,,0.01,VWS V14.01,2013-08-31 15:41:00,
2013-08-31 11:46:00,86.7,75.3,29.87,SSE,165,0.0,10.0,69,0.00,,,0.01,VWS V14.01,2013-08-31 15:46:00,
2013-08-31 11:51:00,86.7,73.5,29.87,SW,236,0.0,10.0,65,0.00,,,0.01,VWS V14.01,2013-08-31 15:51:00,
2013-08-31 11:56:00,86.7,74.4,29.87,SW,231,2.0,10.0,67,0.00,,,0.01,VWS V14.01,2013-08-31 15:56:00,
2013-08-31 12:00:00,87.2,74.9,29.87,WSW,254,4.0,10.0,67,0.00,,,0.01,VWS V14.01,2013-08-31 16:00:00,
2013-08-31 12:01:00,87.2,74.9,29.87,WSW,247,1.0,10.0,67,0.00,,,0.01,VWS V14.01,2013-08-31 16:01:00,
2013-08-31 12:06:00,86.7,73.5,29.87,WSW,250,4.0,6.0,65,0.00,,,0.01,VWS V14.01,2013-08-31 16:06:00,
2013-08-31 12:11:00,85.9,73.7,29.87,West,259,3.0,6.0,67,0.00,,,0.01,VWS V14.01,2013-08-31 16:11:00,
2013-08-31 12:16:00,86.3,73.2,29.87,SW,236,3.0,6.0,65,0.00,,,0.01,VWS V14.01,2013-08-31 16:16:00,
2013-08-31 12:21:00,87.2,75.4,29.87,SW,224,2.0,7.0,68,0.00,,,0.01,VWS V14.01,2013-08-31 16:21:00,
2013-08-31 12:26:00,87.4,75.6,29.87,WSW,242,2.0,13.0,68,0.00,,,0.01,VWS V14.01,2013-08-31 16:26:00,
2013-08-31 12:30:00,87.4,74.2,29.86,West,273,4.0,13.0,65,0.00,,,0.01,VWS V14.01,2013-08-31 16:30:00,
2013-08-31 12:31:00,87.4,74.2,29.86,West,272,4.0,13.0,65,0.00,,,0.01,VWS V14.01,2013-08-31 16:31:00,
2013-08-31 12:36:00,87.2,75.8,29.86,West,273,0.0,4.0,69,0.00,,,0.01,VWS V14.01,2013-08-31 16:36:00,
2013-08-31 12:41:00,86.5,72.4,29.86,WSW,254,2.0,5.0,63,0.00,,,0.01,VWS V14.01,2013-08-31 16:41:00,
2013-08-31 12:46:00,86.7,73.1,29.86,SW,229,0.0,7.0,64,0.00,,,0.01,VWS V14.01,2013-08-31 16:46:00,
2013-08-31 12:51:00,87.2,74.0,29.86,SW,231,0.0,7.0,65,0.00,,,0.01,VWS V14.01,2013-08-31 16:51:00,
2013-08-31 12:55:00,87.6,73.5,29.86,West,275,1.0,7.0,63,0.00,,,0.01,VWS V14.01,2013-08-31 16:55:00,
2013-08-31 13:00:00,87.4,72.3,29.85,WSW,252,0.0,7.0,61,0.00,,,0.01,VWS V14.01,2013-08-31 17:00:00,
2013-08-31 13:05:00,88.0,72.4,29.85,WSW,238,2.0,10.0,60,0.00,,,0.01,VWS V14.01,2013-08-31 17:05:00,
2013-08-31 13:10:00,87.8,73.2,29.85,West,267,0.0,10.0,62,0.00,,,0.01,VWS V14.01,2013-08-31 17:10:00,
2013-08-31 13:15:00,87.6,73.5,29.85,North,360,9.0,10.0,63,0.00,,,0.01,VWS V14.01,2013-08-31 17:15:00,
2013-08-31 13:20:00,88.2,72.1,29.85,SW,215,0.0,10.0,59,0.00,,,0.01,VWS V14.01,2013-08-31 17:20:00,
2013-08-31 13:25:00,88.6,72.4,29.85,SSW,193,2.0,10.0,59,0.00,,,0.01,VWS V14.01,2013-08-31 17:25:00,
2013-08-31 13:30:00,89.0,72.3,29.85,West,271,0.0,10.0,58,0.00,,,0.01,VWS V14.01,2013-08-31 17:30:00,
2013-08-31 13:35:00,89.3,73.1,29.85,South,183,0.0,8.0,59,0.00,,,0.01,VWS V14.01,2013-08-31 17:35:00,
2013-08-31 13:40:00,89.7,72.4,29.85,SSW,204,4.0,8.0,57,0.00,,,0.01,VWS V14.01,2013-08-31 17:40:00,
2013-08-31 13:45:00,89.9,73.7,29.85,West,259,5.0,10.0,59,0.00,,,0.01,VWS V14.01,2013-08-31 17:45:00,
2013-08-31 13:50:00,90.1,73.8,29.85,WSW,246,0.0,10.0,59,0.00,,,0.01,VWS V14.01,2013-08-31 17:50:00,
2013-08-31 13:55:00,89.7,74.0,29.85,SW,234,5.0,10.0,60,0.00,,,0.01,VWS V14.01,2013-08-31 17:55:00,
2013-08-31 14:00:00,87.6,74.8,29.85,WSW,255,6.0,12.0,66,0.00,,,0.01,VWS V14.01,2013-08-31 18:00:00,
2013-08-31 14:05:00,86.5,74.2,29.85,WSW,244,1.0,15.0,67,0.00,,,0.01,VWS V14.01,2013-08-31 18:05:00,
2013-08-31 14:10:00,86.5,70.5,29.85,WSW,248,4.0,15.0,59,0.00,,,0.01,VWS V14.01,2013-08-31 18:10:00,
2013-08-31 14:15:00,86.5,70.0,29.84,West,259,5.0,15.0,58,0.00,,,0.01,VWS V14.01,2013-08-31 18:15:00,
2013-08-31 14:20:00,86.7,70.2,29.84,West,259,6.0,15.0,58,0.00,,,0.01,VWS V14.01,2013-08-31 18:20:00,
2013-08-31 14:25:00,86.5,68.4,29.84,WSW,237,4.0,15.0,55,0.00,,,0.01,VWS V14.01,2013-08-31 18:25:00,
2013-08-31 14:30:00,86.5,67.3,29.83,SW,234,5.0,15.0,53,0.00,,,0.01,VWS V14.01,2013-08-31 18:30:00,
2013-08-31 14:35:00,87.0,68.9,29.83,West,260,2.0,7.0,55,0.00,,,0.01,VWS V14.01,2013-08-31 18:35:00,
2013-08-31 14:40:00,86.7,68.6,29.83,WSW,252,3.0,11.0,55,0.00,,,0.01,VWS V14.01,2013-08-31 18:40:00,
2013-08-31 14:45:00,87.0,70.4,29.82,West,271,2.0,11.0,58,0.00,,,0.01,VWS V14.01,2013-08-31 18:45:00,
2013-08-31 14:50:00,87.4,67.1,29.82,SW,235,2.0,11.0,51,0.00,,,0.01,VWS V14.01,2013-08-31 18:50:00,
2013-08-31 14:55:00,87.6,70.5,29.82,WNW,285,9.0,11.0,57,0.00,,,0.01,VWS V14.01,2013-08-31 18:55:00,
2013-08-31 15:00:00,87.4,73.3,29.82,WSW,254,3.0,11.0,63,0.00,,,0.01,VWS V14.01,2013-08-31 19:00:00,
2013-08-31 15:05:00,87.6,72.5,29.82,WNW,294,5.0,12.0,61,0.00,,,0.01,VWS V14.01,2013-08-31 19:05:00,
2013-08-31 15:10:00,88.0,72.9,29.82,WNW,285,7.0,12.0,61,0.00,,,0.01,VWS V14.01,2013-08-31 19:10:00,
2013-08-31 15:15:00,88.0,70.3,29.82,WSW,252,4.0,12.0,56,0.00,,,0.01,VWS V14.01,2013-08-31 19:15:00,
2013-08-31 15:20:00,88.0,69.8,29.82,West,265,1.0,13.0,55,0.00,,,0.01,VWS V14.01,2013-08-31 19:20:00,
2013-08-31 15:25:00,88.4,71.2,29.82,West,259,3.0,13.0,57,0.00,,,0.01,VWS V14.01,2013-08-31 19:25:00,
2013-08-31 15:30:00,88.8,71.1,29.81,West,265,5.0,13.0,56,0.00,,,0.01,VWS V14.01,2013-08-31 19:30:00,
2013-08-31 15:35:00,88.8,70.0,29.81,West,267,6.0,7.0,54,0.00,,,0.01,VWS V14.01,2013-08-31 19:35:00,
2013-08-31 15:40:00,88.8,70.6,29.81,West,273,0.0,7.0,55,0.00,,,0.01,VWS V14.01,2013-08-31 19:40:00,
2013-08-31 15:45:00,89.3,69.9,29.81,West,279,3.0,7.0,53,0.00,,,0.01,VWS V14.01,2013-08-31 19:45:00,
2013-08-31 15:50:00,89.3,65.2,29.81,WSW,245,2.0,7.0,45,0.00,,,0.01,VWS V14.01,2013-08-31 19:50:00,
2013-08-31 15:55:00,89.3,67.1,29.81,West,264,2.0,7.0,48,0.00,,,0.01,VWS V14.01,2013-08-31 19:55:00,
2013-08-31 16:00:00,89.5,69.0,29.80,WNW,283,1.0,10.0,51,0.00,,,0.01,VWS V14.01,2013-08-31 20:00:00,
2013-08-31 16:05:00,89.3,72.1,29.80,WSW,244,2.0,4.0,57,0.00,,,0.01,VWS V14.01,2013-08-31 20:05:00,
2013-08-31 16:10:00,89.0,72.3,29.80,North,360,3.0,10.0,58,0.00,,,0.01,VWS V14.01,2013-08-31 20:10:00,
2013-08-31 16:15:00,88.6,71.4,29.80,West,265,0.0,10.0,57,0.00,,,0.01,VWS V14.01,2013-08-31 20:15:00,
2013-08-31 16:20:00,88.6,72.4,29.80,West,263,3.0,10.0,59,0.00,,,0.01,VWS V14.01,2013-08-31 20:20:00,
2013-08-31 16:25:00,88.6,72.4,29.80,WSW,252,0.0,10.0,59,0.00,,,0.01,VWS V14.01,2013-08-31 20:25:00,
2013-08-31 16:30:00,88.8,72.6,29.80,West,266,4.0,10.0,59,0.00,,,0.01,VWS V14.01,2013-08-31 20:30:00,
2013-08-31 16:35:00,88.8,71.6,29.80,SW,227,0.0,7.0,57,0.00,,,0.01,VWS V14.01,2013-08-31 20:35:00,
2013-08-31 16:40:00,88.6,70.9,29.80,SSW,212,0.0,7.0,56,0.00,,,0.01,VWS V14.01,2013-08-31 20:40:00,
2013-08-31 16:45:00,88.8,69.5,29.80,WSW,238,2.0,8.0,53,0.00,,,0.01,VWS V14.01,2013-08-31 20:45:00,
2013-08-31 16:50:00,88.8,70.0,29.80,WSW,237,0.0,8.0,54,0.00,,,0.01,VWS V14.01,2013-08-31 20:50:00,
2013-08-31 16:55:00,88.8,68.4,29.80,SW,225,7.0,8.0,51,0.00,,,0.01,VWS V14.01,2013-08-31 20:55:00,
2013-08-31 17:00:00,88.8,68.4,29.79,SSW,205,0.0,8.0,51,0.00,,,0.01,VWS V14.01,2013-08-31 21:00:00,
2013-08-31 17:05:00,89.3,68.2,29.79,SW,231,0.0,3.0,50,0.00,,,0.01,VWS V14.01,2013-08-31 21:05:00,
2013-08-31 17:10:00,89.5,69.0,29.79,West,265,1.0,8.0,51,0.00,,,0.01,VWS V14.01,2013-08-31 21:10:00,
2013-08-31 17:15:00,89.7,69.2,29.78,WSW,247,1.0,8.0,51,0.00,,,0.01,VWS V14.01,2013-08-31 21:15:00,
2013-08-31 17:20:00,89.5,70.7,29.78,SSW,206,0.0,8.0,54,0.00,,,0.01,VWS V14.01,2013-08-31 21:20:00,
2013-08-31 17:25:00,89.3,71.0,29.78,SSW,200,0.0,8.0,55,0.00,,,0.01,VWS V14.01,2013-08-31 21:25:00,
2013-08-31 17:30:00,88.8,70.6,29.80,West,281,5.0,9.0,55,0.00,,,0.01,VWS V14.01,2013-08-31 21:30:00,
2013-08-31 17:35:00,88.6,68.2,29.80,SW,227,3.0,5.0,51,0.00,,,0.01,VWS V14.01,2013-08-31 21:35:00,
2013-08-31 17:40:00,88.4,68.6,29.80,WSW,258,1.0,5.0,52,0.00,,,0.01,VWS V14.01,2013-08-31 21:40:00,
2013-08-31 17:45:00,88.2,69.5,29.80,WSW,252,0.0,5.0,54,0.00,,,0.01,VWS V14.01,2013-08-31 21:45:00,
2013-08-31 17:50:00,88.2,71.1,29.80,SW,221,0.0,6.0,57,0.00,,,0.01,VWS V14.01,2013-08-31 21:50:00,
2013-08-31 17:55:00,88.2,70.0,29.80,SW,222,0.0,6.0,55,0.00,,,0.01,VWS V14.01,2013-08-31 21:55:00,
2013-08-31 18:00:00,88.0,70.9,29.79,South,183,0.0,7.0,57,0.00,,,0.01,VWS V14.01,2013-08-31 22:00:00,
2013-08-31 18:05:00,88.0,71.9,29.79,SSW,201,0.0,4.0,59,0.00,,,0.01,VWS V14.01,2013-08-31 22:05:00,
2013-08-31 18:10:00,87.8,69.1,29.79,SW,223,0.0,6.0,54,0.00,,,0.01,VWS V14.01,2013-08-31 22:10:00,
2013-08-31 18:15:00,88.0,67.6,29.80,WSW,250,0.0,6.0,51,0.00,,,0.01,VWS V14.01,2013-08-31 22:15:00,
2013-08-31 18:20:00,88.2,68.4,29.80,SW,227,0.0,6.0,52,0.00,,,0.01,VWS V14.01,2013-08-31 22:20:00,
2013-08-31 18:25:00,88.2,68.9,29.80,SSW,212,0.0,6.0,53,0.00,,,0.01,VWS V14.01,2013-08-31 22:25:00,
2013-08-31 18:30:00,88.2,69.5,29.80,SSE,166,0.0,7.0,54,0.00,,,0.01,VWS V14.01,2013-08-31 22:30:00,
2013-08-31 18:35:00,87.6,70.5,29.80,East,91,11.0,15.0,57,0.00,,,0.01,VWS V14.01,2013-08-31 22:35:00,
2013-08-31 18:40:00,84.9,68.5,29.80,South,180,11.0,17.0,58,0.00,,,0.01,VWS V14.01,2013-08-31 22:40:00,
2013-08-31 18:45:00,83.0,68.7,29.81,South,182,4.0,17.0,62,0.00,,,0.01,VWS V14.01,2013-08-31 22:45:00,
2013-08-31 18:50:00,81.6,68.7,29.81,SE,134,2.0,17.0,65,0.00,,,0.01,VWS V14.01,2013-08-31 22:50:00,
2013-08-31 18:55:00,81.1,68.7,29.81,SE,130,0.0,17.0,66,0.00,,,0.01,VWS V14.01,2013-08-31 22:55:00,
2013-08-31 19:00:00,80.7,68.7,29.81,SE,133,0.0,17.0,67,0.00,,,0.01,VWS V14.01,2013-08-31 23:00:00,
2013-08-31 19:05:00,80.5,69.0,29.81,SSE,147,3.0,7.0,68,0.00,,,0.01,VWS V14.01,2013-08-31 23:05:00,
2013-08-31 19:10:00,80.3,68.8,29.81,SE,127,0.0,7.0,68,0.00,,,0.01,VWS V14.01,2013-08-31 23:10:00,
2013-08-31 19:15:00,80.3,68.8,29.82,SSW,201,0.0,7.0,68,0.00,,,0.01,VWS V14.01,2013-08-31 23:15:00,
2013-08-31 19:20:00,80.1,68.6,29.82,ESE,103,0.0,7.0,68,0.00,,,0.01,VWS V14.01,2013-08-31 23:20:00,
2013-08-31 19:25:00,80.1,69.0,29.82,ESE,111,0.0,7.0,69,0.00,,,0.01,VWS V14.01,2013-08-31 23:25:00,
2013-08-31 19:30:00,79.9,68.8,29.82,SSE,163,0.0,9.0,69,0.00,,,0.01,VWS V14.01,2013-08-31 23:30:00,
2013-08-31 19:35:00,79.8,69.2,29.82,SSW,200,1.0,6.0,70,0.00,,,0.01,VWS V14.01,2013-08-31 23:35:00,
2013-08-31 19:40:00,79.6,68.5,29.82,SSE,153,0.0,7.0,69,0.00,,,0.01,VWS V14.01,2013-08-31 23:40:00,
2013-08-31 19:45:00,79.6,68.5,29.82,South,184,1.0,8.0,69,0.00,,,0.01,VWS V14.01,2013-08-31 23:45:00,
2013-08-31 19:50:00,79.4,68.3,29.82,South,169,9.0,9.0,69,0.00,,,0.01,VWS V14.01,2013-08-31 23:50:00,
2013-08-31 19:55:00,79.2,68.6,29.82,SSW,195,0.0,9.0,70,0.00,,,0.01,VWS V14.01,2013-08-31 23:55:00,
2013-08-31 20:00:00,79.0,68.8,29.82,South,185,0.0,9.0,71,0.00,,,0.01,VWS V14.01,2013-09-01 00:00:00,
2013-08-31 20:05:00,78.8,69.4,29.82,SSW,194,0.0,2.0,73,0.00,,,0.01,VWS V14.01,2013-09-01 00:05:00,
2013-08-31 20:10:00,78.6,69.2,29.82,WSW,252,0.0,3.0,73,0.00,,,0.01,VWS V14.01,2013-09-01 00:10:00,
2013-08-31 20:15:00,78.5,69.1,29.83,WSW,249,0.0,3.0,73,0.00,,,0.01,VWS V14.01,2013-09-01 00:15:00,
2013-08-31 20:20:00,78.3,69.7,29.83,SW,227,0.0,4.0,75,0.00,,,0.01,VWS V14.01,2013-09-01 00:20:00,
2013-08-31 20:25:00,78.3,70.1,29.83,West,271,0.0,8.0,76,0.00,,,0.01,VWS V14.01,2013-09-01 00:25:00,
2013-08-31 20:30:00,78.1,69.9,29.83,WSW,250,0.0,8.0,76,0.00,,,0.01,VWS V14.01,2013-09-01 00:30:00,
2013-08-31 20:35:00,77.9,69.7,29.83,SW,236,0.0,5.0,76,0.00,,,0.01,VWS V14.01,2013-09-01 00:35:00,
2013-08-31 20:40:00,77.7,70.3,29.83,SW,236,0.0,5.0,78,0.00,,,0.01,VWS V14.01,2013-09-01 00:40:00,
2013-08-31 20:45:00,77.7,70.3,29.84,SSW,198,0.0,5.0,78,0.00,,,0.01,VWS V14.01,2013-09-01 00:45:00,
2013-08-31 20:50:00,77.6,70.2,29.84,SSW,197,0.0,5.0,78,0.00,,,0.01,VWS V14.01,2013-09-01 00:50:00,
2013-08-31 20:55:00,77.6,70.6,29.84,South,191,0.0,5.0,79,0.00,,,0.01,VWS V14.01,2013-09-01 00:55:00,
2013-08-31 21:00:00,77.6,70.6,29.84,South,186,0.0,5.0,79,0.00,,,0.01,VWS V14.01,2013-09-01 01:00:00,
2013-08-31 21:05:00,77.4,70.8,29.84,South,186,0.0,1.0,80,0.00,,,0.01,VWS V14.01,2013-09-01 01:05:00,
2013-08-31 21:10:00,77.4,70.8,29.84,East,96,0.0,4.0,80,0.00,,,0.01,VWS V14.01,2013-09-01 01:10:00,
2013-08-31 21:15:00,77.4,70.4,29.85,ESE,120,0.0,5.0,79,0.00,,,0.01,VWS V14.01,2013-09-01 01:15:00,
2013-08-31 21:20:00,77.4,70.8,29.85,ESE,120,0.0,5.0,80,0.00,,,0.01,VWS V14.01,2013-09-01 01:20:00,
2013-08-31 21:25:00,77.4,70.4,29.85,ESE,119,0.0,5.0,79,0.00,,,0.01,VWS V14.01,2013-09-01 01:25:00,
2013-08-31 21:30:00,77.2,70.2,29.85,ESE,119,0.0,5.0,79,0.00,,,0.01,VWS V14.01,2013-09-01 01:30:00,
2013-08-31 21:35:00,77.0,70.4,29.85,ESE,118,0.0,1.0,80,0.00,,,0.01,VWS V14.01,2013-09-01 01:35:00,
2013-08-31 21:40:00,77.0,70.4,29.85,ESE,119,0.0,1.0,80,0.00,,,0.01,VWS V14.01,2013-09-01 01:40:00,
2013-08-31 21:45:00,76.8,70.2,29.86,ESE,118,1.0,1.0,80,0.00,,,0.01,VWS V14.01,2013-09-01 01:45:00,
2013-08-31 21:50:00,76.8,70.2,29.86,ESE,119,0.0,1.0,80,0.00,,,0.01,VWS V14.01,2013-09-01 01:50:00,
2013-08-31 21:55:00,76.8,70.9,29.86,ESE,120,0.0,1.0,82,0.00,,,0.01,VWS V14.01,2013-09-01 01:55:00,
2013-08-31 22:00:00,76.7,70.4,29.87,ESE,121,0.0,1.0,81,0.00,,,0.01,VWS V14.01,2013-09-01 02:00:00,
2013-08-31 22:05:00,76.7,70.8,29.87,ESE,118,0.0,1.0,82,0.00,,,0.01,VWS V14.01,2013-09-01 02:05:00,
2013-08-31 22:10:00,76.7,70.8,29.87,ESE,120,0.0,1.0,82,0.00,,,0.01,VWS V14.01,2013-09-01 02:10:00,
2013-08-31 22:15:00,76.7,70.4,29.87,ESE,118,0.0,1.0,81,0.00,,,0.01,VWS V14.01,2013-09-01 02:15:00,
2013-08-31 22:20:00,76.7,70.8,29.87,ESE,120,0.0,1.0,82,0.00,,,0.01,VWS V14.01,2013-09-01 02:20:00,
2013-08-31 22:25:00,76.5,70.6,29.87,ESE,119,0.0,1.0,82,0.00,,,0.01,VWS V14.01,2013-09-01 02:25:00,
2013-08-31 22:30:00,76.5,70.2,29.88,SE,130,0.0,3.0,81,0.00,,,0.01,VWS V14.01,2013-09-01 02:30:00,
2013-08-31 22:35:00,76.5,70.6,29.88,SE,132,0.0,0.0,82,0.00,,,0.01,VWS V14.01,2013-09-01 02:35:00,
2013-08-31 22:40:00,76.3,70.4,29.88,SE,130,0.0,0.0,82,0.00,,,0.01,VWS V14.01,2013-09-01 02:40:00,
2013-08-31 22:45:00,76.1,70.2,29.87,SE,132,0.0,1.0,82,0.00,,,0.01,VWS V14.01,2013-09-01 02:45:00,
2013-08-31 22:50:00,76.0,70.5,29.87,SE,130,0.0,1.0,83,0.00,,,0.01,VWS V14.01,2013-09-01 02:50:00,
2013-08-31 22:55:00,76.0,70.5,29.87,SE,132,0.0,1.0,83,0.00,,,0.01,VWS V14.01,2013-09-01 02:55:00,
2013-08-31 23:00:00,75.6,70.1,29.86,SE,131,0.0,1.0,83,0.00,,,0.01,VWS V14.01,2013-09-01 03:00:00,
2013-08-31 23:05:00,75.6,70.1,29.86,SE,132,0.0,1.0,83,0.00,,,0.01,VWS V14.01,2013-09-01 03:05:00,
2013-08-31 23:10:00,75.4,70.2,29.86,SE,132,0.0,1.0,84,0.00,,,0.01,VWS V14.01,2013-09-01 03:10:00,
2013-08-31 23:15:00,75.3,70.1,29.87,SE,132,0.0,1.0,84,0.00,,,0.01,VWS V14.01,2013-09-01 03:15:00,
2013-08-31 23:20:00,75.3,70.5,29.87,SE,130,0.0,1.0,85,0.00,,,0.01,VWS V14.01,2013-09-01 03:20:00,
2013-08-31 23:25:00,75.1,70.3,29.87,SE,132,0.0,1.0,85,0.00,,,0.01,VWS V14.01,2013-09-01 03:25:00,
2013-08-31 23:30:00,75.1,70.3,29.87,SE,131,0.0,1.0,85,0.00,,,0.01,VWS V14.01,2013-09-01 03:30:00,
2013-08-31 23:35:00,75.1,70.3,29.87,SE,131,0.0,0.0,85,0.00,,,0.01,VWS V14.01,2013-09-01 03:35:00,
2013-08-31 23:40:00,74.9,70.1,29.87,SE,131,0.0,3.0,85,0.00,,,0.01,VWS V14.01,2013-09-01 03:40:00,
2013-08-31 23:45:00,74.9,70.1,29.86,SE,132,0.0,3.0,85,0.00,,,0.01,VWS V14.01,2013-09-01 03:45:00,
2013-08-31 23:50:00,74.7,70.2,29.86,SE,132,0.0,3.0,86,0.00,,,0.01,VWS V14.01,2013-09-01 03:50:00,
2013-08-31 23:55:00,74.7,70.2,29.86,SE,130,0.0,3.0,86,0.00,,,0.01,VWS V14.01,2013-09-01 03:55:00,